Date,TemperatureHighF,TemperatureAvgF,TemperatureLowF,DewpointHighF,DewpointAvgF,DewpointLowF,HumidityHigh,HumidityAvg,HumidityLow,PressureMaxIn,PressureMinIn,WindSpeedMaxMPH,WindSpeedAvgMPH,GustSpeedMaxMPH,PrecipitationSumIn
2013-1-1,46,42,37,44,39,23,98,89,47,30.16,30.00,16,0,16,0.74
2013-1-2,44,38,34,44,36,33,98,94,89,30.20,29.98,16,1,16,0.02
2013-1-3,41,34,30,35,30,23,97,86,65,30.40,30.15,9,1,12,0.00
2013-1-4,41,32,25,29,23,18,91,71,42,30.47,30.36,24,1,24,0.00
2013-1-5,51,37,25,34,25,20,86,65,37,30.49,30.27,15,0,15,0.01
2013-1-6,47,39,35,40,34,29,97,84,69,30.31,30.13,14,1,14,0.02
2013-1-7,55,40,28,33,28,23,93,66,41,30.45,30.27,16,1,16,0.00
2013-1-8,55,42,32,43,33,26,87,71,55,30.49,30.34,11,0,11,0.00
2013-1-9,52,49,46,51,46,42,96,91,81,30.48,30.37,4,0,5,0.01
2013-1-10,64,56,49,54,51,48,98,85,66,30.47,30.21,18,0,18,0.00
2013-1-11,62,59,56,59,56,52,98,91,78,30.22,30.08,20,2,20,0.17
2013-1-12,66,62,59,62,59,54,99,91,82,30.16,30.02,19,1,19,0.06
2013-1-13,64,62,58,58,56,53,98,81,72,30.08,29.97,24,2,24,0.70
2013-1-14,58,51,43,58,50,43,99,98,96,30.22,29.99,9,0,9,2.91
2013-1-15,60,51,44,60,51,43,100,99,98,30.18,29.93,19,0,19,1.91
2013-1-16,61,55,50,60,54,49,100,96,91,30.01,29.87,25,1,25,0.53
2013-1-17,50,42,32,49,42,29,100,97,87,30.33,29.72,18,1,18,1.59
2013-1-18,51,37,28,34,28,19,90,69,40,30.53,30.32,7,0,7,0.00
2013-1-19,55,40,29,34,27,15,90,63,22,30.51,30.24,12,1,13,0.00
2013-1-20,58,44,36,38,30,22,67,57,39,30.24,30.11,19,2,19,0.00
2013-1-21,47,37,27,33,24,13,85,60,39,30.20,30.09,20,2,20,0.00
2013-1-22,33,25,18,14,7,0,65,47,28,30.42,30.17,20,3,20,0.00
2013-1-23,47,35,25,32,20,8,72,56,45,30.41,30.16,19,2,19,0.00
2013-1-24,43,35,27,35,20,9,79,56,33,30.43,30.13,26,4,26,0.00
2013-1-25,40,29,22,40,24,11,98,82,51,30.44,30.18,10,0,10,0.13
2013-1-26,51,39,31,37,28,22,97,69,34,30.38,30.21,13,1,13,0.21
2013-1-27,50,40,29,37,31,26,87,71,50,30.52,30.36,10,0,10,0.00
2013-1-28,58,48,40,50,41,32,86,77,69,30.45,30.27,20,1,26,0.00
2013-1-29,62,54,46,58,50,44,95,85,72,30.29,29.91,12,1,12,0.02
2013-1-30,66,58,39,60,54,36,97,87,78,29.92,29.50,31,4,31,2.77
2013-1-31,37,34,28,33,23,20,90,64,52,30.15,29.67,25,4,26,0.03
2013-2-1,40,26,19,30,15,5,90,63,43,30.48,30.05,27,4,27,0.00
2013-2-2,34,26,19,31,20,6,95,79,51,30.46,30.14,19,1,19,0.00
2013-2-3,38,33,28,33,28,22,95,79,67,30.18,30.04,21,2,21,0.16
2013-2-4,44,35,26,32,24,17,82,66,51,30.22,30.03,15,0,15,0.08
2013-2-5,56,44,36,44,34,26,93,71,47,30.08,29.95,9,0,9,0.01
2013-2-6,59,48,40,40,30,22,81,54,26,30.22,30.04,18,1,18,0.00
2013-2-7,47,43,40,42,35,25,95,73,52,30.21,29.97,13,1,13,0.18
2013-2-8,48,41,32,44,38,28,97,89,68,30.25,29.94,15,1,17,0.06
2013-2-9,59,43,27,33,27,19,90,57,30,30.38,30.21,14,1,14,0.00
2013-2-10,55,44,41,45,32,24,98,64,31,30.35,30.09,17,1,17,0.81
2013-2-11,54,49,44,51,42,24,99,81,41,30.14,30.04,16,0,16,0.24
2013-2-12,52,44,39,38,32,24,93,64,42,30.17,29.89,13,1,13,0.15
2013-2-13,45,39,33,44,37,30,98,92,82,29.99,29.72,21,2,21,0.14
2013-2-14,54,39,31,36,30,27,91,72,42,30.13,29.99,17,1,17,0.00
2013-2-15,54,39,31,39,33,28,92,79,48,30.18,30.00,18,1,18,0.11
2013-2-16,33,27,21,30,22,13,88,81,67,30.18,30.00,16,2,16,0.00
2013-2-17,33,26,17,17,13,10,76,59,43,30.34,30.17,22,2,22,0.01
2013-2-18,54,38,24,30,22,14,75,54,37,30.44,30.13,17,1,17,0.00
2013-2-19,48,39,31,42,28,16,97,67,36,30.18,29.96,26,3,26,0.44
2013-2-20,42,33,27,20,10,-1,63,41,17,30.25,30.17,18,2,18,0.00
2013-2-21,60,42,26,38,24,12,94,52,26,30.29,30.02,13,0,13,0.60
2013-2-22,44,40,37,43,39,35,97,94,89,30.20,30.06,19,1,19,0.38
2013-2-23,54,48,43,52,45,34,99,90,59,30.09,29.85,10,0,10,0.42
2013-2-24,57,45,38,40,31,24,90,60,34,30.08,29.90,19,2,19,0.00
2013-2-25,51,42,32,41,31,25,90,67,49,30.12,29.89,18,1,18,0.00
2013-2-26,58,46,37,51,42,32,98,85,70,29.90,29.48,26,4,26,1.01
2013-2-27,52,40,34,38,32,29,88,73,46,29.89,29.68,25,3,25,0.03
2013-2-28,36,31,29,29,26,24,90,81,71,30.05,29.81,19,3,19,0.00
2013-3-1,33,31,29,29,28,25,91,88,83,30.04,29.98,14,1,14,0.01
2013-3-2,34,29,23,28,26,19,92,87,74,30.09,29.96,17,2,17,0.02
2013-3-3,29,24,19,20,18,15,87,75,61,30.17,30.06,20,2,20,0.05
2013-3-4,52,37,22,34,24,11,80,59,32,30.25,30.07,14,1,14,0.02
2013-3-5,50,39,30,47,36,25,98,87,66,30.08,29.71,30,2,30,0.81
2013-3-6,30,27,24,26,24,20,93,89,83,30.28,29.85,27,3,30,0.00
2013-3-7,50,34,24,36,27,22,92,78,51,30.35,30.22,13,1,15,0.05
2013-3-8,57,39,24,36,24,16,100,63,22,30.43,30.28,17,1,17,0.00
2013-3-9,68,49,34,37,29,22,70,48,26,30.37,30.17,12,0,12,0.00
2013-3-10,68,53,42,38,34,30,64,48,30,30.24,30.07,15,1,15,0.00
2013-3-11,56,52,48,50,47,38,97,82,58,30.08,29.79,22,2,22,0.97
2013-3-12,50,42,33,47,35,30,96,78,52,30.14,29.81,19,3,19,0.08
2013-3-13,38,35,27,30,25,18,78,68,55,30.33,30.09,24,3,24,0.00
2013-3-14,46,35,23,21,17,12,76,49,30,30.40,30.29,19,2,19,0.00
2013-3-15,67,51,36,44,36,20,78,56,34,30.29,29.92,24,2,24,0.00
2013-3-16,72,63,56,49,45,41,60,52,42,29.92,29.77,24,4,24,0.00
2013-3-17,70,61,56,51,46,41,67,57,42,29.94,29.83,19,2,19,0.00
2013-3-18,59,52,46,50,47,46,97,85,67,29.93,29.82,20,1,20,0.78
2013-3-19,53,45,36,46,32,14,98,64,34,30.15,29.86,24,3,24,0.02
2013-3-20,53,40,32,30,16,8,85,40,24,30.17,29.93,23,2,23,0.00
2013-3-21,34,28,19,24,14,10,76,56,41,30.06,29.92,24,4,24,0.00
2013-3-22,44,34,25,31,20,13,74,56,43,30.14,30.04,5,0,6,0.00
2013-3-23,53,43,36,46,38,26,95,83,58,30.07,29.81,7,0,7,0.07
2013-3-24,55,47,37,51,45,30,98,91,73,29.87,29.44,20,2,22,1.00
2013-3-25,37,29,26,31,24,21,92,80,72,30.07,29.61,21,6,26,0.00
2013-3-26,34,29,25,29,25,22,99,87,75,30.33,30.06,16,1,16,0.13
2013-3-27,44,34,26,27,24,21,92,68,42,30.38,30.29,20,2,20,0.01
2013-3-28,52,40,30,28,23,18,74,53,32,30.38,30.28,19,2,19,0.00
2013-3-29,44,38,31,37,29,19,95,73,45,30.41,30.29,11,0,11,0.16
2013-3-30,61,47,38,48,40,36,98,80,43,30.29,30.04,13,1,13,0.25
2013-3-31,59,52,47,52,50,46,98,92,76,30.05,29.86,14,1,14,0.90
2013-4-1,58,51,43,51,42,36,96,75,53,30.05,29.87,19,2,20,0.02
2013-4-2,55,44,36,36,26,17,80,51,26,30.20,30.04,15,2,15,0.00
2013-4-3,61,48,37,31,26,20,59,44,27,30.26,30.15,13,1,15,0.00
2013-4-4,49,40,36,38,35,28,97,84,44,30.18,30.00,18,1,18,1.08
2013-4-5,59,47,38,44,38,33,98,75,41,30.12,30.00,17,1,17,0.02
2013-4-6,70,54,38,42,36,33,86,55,29,30.25,30.08,15,1,15,0.00
2013-4-7,69,58,44,45,40,35,74,53,38,30.20,30.06,17,2,17,0.00
2013-4-8,73,62,51,52,48,44,79,61,44,30.13,30.03,20,2,20,0.00
2013-4-9,80,67,55,56,52,50,83,62,37,30.18,30.05,18,1,18,0.00
2013-4-10,84,70,56,59,54,51,85,60,34,30.09,29.88,10,1,17,0.00
2013-4-11,76,68,59,62,56,50,95,66,47,29.89,29.63,23,3,23,0.93
2013-4-12,63,56,48,58,48,37,95,76,45,29.95,29.57,29,2,29,0.37
2013-4-13,68,56,44,40,36,24,78,50,22,30.07,29.94,19,2,19,0.00
2013-4-14,67,54,45,48,40,34,91,61,36,30.10,29.93,22,2,25,0.07
2013-4-15,81,62,50,58,53,48,97,75,40,30.14,29.93,13,1,13,0.01
2013-4-16,82,67,55,63,57,53,94,74,44,30.24,30.08,10,1,14,0.07
2013-4-17,78,67,62,67,60,56,93,79,57,30.21,30.09,10,0,10,0.33
2013-4-18,74,68,60,60,56,53,92,68,51,30.07,29.84,21,2,21,0.00
2013-4-19,68,58,40,61,52,33,94,80,69,30.04,29.69,34,4,34,0.68
2013-4-20,58,45,33,34,30,26,83,59,34,30.30,30.03,21,2,21,0.00
2013-4-21,66,51,39,37,33,29,78,52,30,30.42,30.24,13,1,13,0.00
2013-4-22,71,55,41,43,38,36,83,56,31,30.38,30.12,14,1,14,0.00
2013-4-23,75,57,43,49,40,34,77,55,33,30.23,30.05,15,1,15,0.00
2013-4-24,67,58,46,57,52,43,93,80,62,30.16,30.01,22,3,22,0.34
2013-4-25,64,50,36,46,36,25,95,65,26,30.37,30.15,19,1,19,0.00
2013-4-26,72,55,40,42,36,30,75,50,25,30.44,30.26,17,1,17,0.00
2013-4-27,57,50,46,50,47,41,98,91,57,30.37,30.21,14,1,14,1.39
2013-4-28,52,51,49,51,50,48,99,98,96,30.22,29.98,13,1,13,1.80
2013-4-29,71,59,51,58,53,49,99,82,55,30.05,29.90,10,0,10,0.01
2013-4-30,80,63,50,58,52,49,96,70,38,30.08,29.94,11,0,11,0.00
2013-5-1,76,64,56,56,53,49,92,68,44,30.17,30.07,14,1,14,0.00
2013-5-2,68,60,56,56,52,48,82,74,60,30.22,30.12,16,1,16,0.00
2013-5-3,68,58,54,54,51,48,84,76,54,30.16,29.99,22,2,22,0.00
2013-5-4,54,51,49,50,47,39,97,85,66,29.99,29.89,24,2,24,0.61
2013-5-5,55,51,50,53,50,48,100,96,93,29.90,29.76,16,2,16,0.67
2013-5-6,59,49,43,50,45,42,100,85,56,29.92,29.77,18,1,18,0.33
2013-5-7,66,53,42,52,46,41,98,80,48,29.99,29.89,19,1,19,0.01
2013-5-8,68,58,52,58,53,48,96,86,68,30.07,29.92,12,0,12,0.06
2013-5-9,77,62,50,62,54,48,98,76,41,30.14,30.03,12,0,12,0.01
2013-5-10,71,63,55,60,55,52,92,75,63,30.08,29.94,24,2,24,0.00
2013-5-11,70,61,53,62,57,52,98,88,68,29.96,29.86,15,1,15,0.50
2013-5-12,61,52,44,52,42,31,96,71,42,30.14,29.94,18,1,18,0.00
2013-5-13,62,50,39,39,34,30,77,57,35,30.24,30.13,19,1,19,0.00
2013-5-14,75,59,40,54,44,33,85,61,43,30.31,30.07,18,1,18,0.00
2013-5-15,84,70,56,60,54,50,86,59,33,30.15,29.97,18,1,18,0.00
2013-5-16,78,69,58,62,57,52,88,68,53,30.06,29.95,10,0,10,0.00
2013-5-17,76,68,59,64,58,50,91,72,53,30.08,29.99,6,0,6,0.00
2013-5-18,70,63,58,67,61,54,100,92,65,30.08,30.00,6,0,6,0.39
2013-5-19,68,63,61,66,62,60,99,97,92,30.08,29.99,12,0,12,0.13
2013-5-20,82,67,60,70,63,59,99,88,61,30.12,29.98,10,0,10,0.01
2013-5-21,86,70,62,69,64,60,99,83,52,30.04,29.86,16,0,16,0.00
2013-5-22,82,68,60,70,63,59,98,86,56,29.99,29.82,15,0,15,0.18
2013-5-23,76,66,61,63,59,53,99,81,53,29.96,29.86,13,1,13,0.02
2013-5-24,70,59,51,54,48,40,92,70,41,30.27,29.94,12,0,12,0.00
2013-5-25,77,58,43,52,44,39,90,61,29,30.35,30.18,15,0,15,0.00
2013-5-26,75,60,49,57,46,38,93,63,27,30.32,30.17,12,0,12,0.03
2013-5-27,82,66,52,62,54,45,88,65,42,30.27,30.10,14,0,14,0.00
2013-5-28,84,70,60,65,58,54,91,68,38,30.19,30.07,13,0,13,0.00
2013-5-29,83,71,59,67,60,56,97,72,48,30.20,30.08,7,0,7,0.00
2013-5-30,83,70,59,66,61,57,94,74,49,30.25,30.10,10,0,10,0.00
2013-5-31,83,71,62,65,61,58,92,72,46,30.19,30.05,13,0,13,0.00
2013-6-1,83,72,62,67,63,60,96,75,50,30.08,29.96,15,1,15,0.37
2013-6-2,68,65,63,68,65,62,99,97,91,29.98,29.88,9,0,9,1.75
2013-6-3,79,68,61,69,63,60,100,85,56,29.97,29.84,14,0,14,0.01
2013-6-4,82,68,56,66,60,55,98,78,47,30.04,29.94,7,0,7,0.00
2013-6-5,78,68,62,71,64,61,98,87,70,30.04,29.89,17,0,17,0.53
2013-6-6,78,67,61,70,64,60,99,91,74,29.92,29.74,8,0,8,0.00
2013-6-7,82,69,62,69,65,60,98,87,57,29.83,29.65,13,0,13,0.16
2013-6-8,78,68,61,68,63,60,99,85,64,30.06,29.80,6,0,6,0.00
2013-6-9,79,68,61,71,64,59,98,89,74,30.13,29.96,13,0,13,0.14
2013-6-10,77,68,63,67,64,60,98,86,61,29.99,29.89,17,1,21,0.35
2013-6-11,82,72,64,69,65,62,98,81,54,30.01,29.93,14,0,14,0.05
2013-6-12,88,76,64,77,69,63,99,80,58,30.04,29.91,11,0,11,0.00
2013-6-13,85,74,65,72,68,64,97,83,60,29.91,29.66,18,1,18,0.26
2013-6-14,80,68,57,64,58,54,97,74,47,30.03,29.79,14,0,14,0.01
2013-6-15,82,68,55,66,59,53,95,74,49,30.16,30.02,9,0,9,0.00
2013-6-16,84,70,60,68,62,59,96,78,53,30.14,29.98,10,0,10,0.00
2013-6-17,78,70,67,71,67,65,97,89,77,30.03,29.91,6,0,6,0.18
2013-6-18,75,67,62,71,65,61,99,95,82,29.94,29.81,15,0,15,0.48
2013-6-19,82,68,59,71,63,58,100,85,57,30.08,29.91,5,0,5,0.01
2013-6-20,84,69,61,71,64,60,98,86,55,30.20,30.06,7,0,7,0.02
2013-6-21,81,69,64,69,64,61,98,85,55,30.25,30.15,10,0,10,0.00
2013-6-22,84,71,61,68,64,60,100,80,51,30.24,30.07,7,0,7,0.00
2013-6-23,82,69,60,69,64,59,98,86,58,30.20,30.08,7,0,7,0.07
2013-6-24,85,72,65,72,67,64,99,86,55,30.22,30.06,6,0,6,0.00
2013-6-25,80,72,64,74,67,63,98,87,71,30.14,30.01,5,0,5,0.00
2013-6-26,83,72,65,73,68,64,99,88,66,30.06,29.90,12,0,12,0.01
2013-6-27,82,72,65,76,69,64,99,91,71,29.92,29.76,18,1,18,0.25
2013-6-28,85,74,67,72,68,64,99,84,55,29.83,29.62,12,0,12,0.03
2013-6-29,81,71,63,69,63,57,99,78,49,29.69,29.62,12,0,12,0.00
2013-6-30,83,71,59,67,62,57,97,76,45,29.77,29.68,14,0,14,0.00
2013-7-1,80,69,64,69,65,62,97,88,63,29.91,29.73,10,0,10,0.03
2013-7-2,80,70,63,71,66,62,99,87,60,30.07,29.89,7,0,7,0.01
2013-7-3,68,65,62,66,64,61,99,97,90,30.19,30.04,8,0,8,1.69
2013-7-4,73,65,62,71,65,61,100,98,90,30.19,30.09,7,0,7,0.50
2013-7-5,75,68,64,70,66,64,99,94,83,30.20,30.11,7,0,7,0.18
2013-7-6,76,69,65,72,68,65,100,95,78,30.17,30.07,7,0,7,0.99
2013-7-7,76,70,66,72,68,66,100,95,79,30.15,30.07,7,0,7,0.18
2013-7-8,84,73,66,76,70,66,100,90,67,30.18,30.06,4,0,4,0.00
2013-7-9,86,73,67,76,70,66,99,90,60,30.16,30.02,6,0,6,0.53
2013-7-10,84,73,67,77,70,67,100,91,68,30.09,29.91,13,0,13,0.06
2013-7-11,76,70,68,73,69,67,100,98,87,29.95,29.90,1,0,1,0.00
2013-7-12,86,75,66,75,68,64,98,80,61,29.94,29.84,11,0,11,0.00
2013-7-13,79,70,63,69,65,61,96,83,66,30.06,29.92,11,0,11,0.00
2013-7-14,75,70,66,71,67,64,98,91,82,30.21,30.04,13,1,15,0.21
2013-7-15,84,74,67,72,67,64,93,80,62,30.29,30.19,8,0,8,0.00
2013-7-16,89,76,66,75,69,64,97,81,53,30.31,30.18,7,0,7,0.01
2013-7-17,88,74,66,78,70,64,100,88,60,30.30,30.13,7,0,7,0.02
2013-7-18,87,71,63,76,68,63,99,91,65,30.22,30.05,6,0,10,0.77
2013-7-19,87,73,66,76,70,66,100,90,62,30.14,29.95,6,0,6,0.19
2013-7-20,84,69,67,75,68,67,99,96,75,30.02,29.90,1,0,7,0.48
2013-7-21,82,71,66,75,69,66,100,94,75,30.03,29.91,9,0,9,0.06
2013-7-22,82,71,65,73,68,65,100,90,68,29.98,29.82,14,0,14,0.38
2013-7-23,81,71,65,74,68,64,98,89,71,29.92,29.79,13,0,13,0.00
2013-7-24,83,74,68,74,69,65,96,86,65,29.85,29.76,11,0,11,0.01
2013-7-25,85,71,64,73,66,62,99,84,59,30.01,29.83,11,0,11,0.00
2013-7-26,84,70,60,72,65,59,98,85,60,30.09,29.97,10,0,10,0.07
2013-7-27,81,70,64,70,66,63,100,89,58,29.99,29.86,12,0,12,0.00
2013-7-28,78,70,65,70,65,60,98,86,66,30.04,29.87,7,0,7,0.00
2013-7-29,83,68,59,68,59,50,97,75,35,30.18,30.02,11,0,11,0.00
2013-7-30,85,66,56,71,60,55,98,82,53,30.26,30.12,5,0,5,0.01
2013-7-31,73,68,64,70,66,63,98,94,86,30.13,29.96,11,0,11,0.17
2013-8-1,83,72,66,75,68,64,100,88,65,29.98,29.88,12,0,13,0.01
2013-8-2,84,71,61,72,65,61,99,84,62,30.03,29.93,9,0,9,0.01
2013-8-3,80,71,64,72,66,63,99,86,66,30.04,29.98,9,0,9,0.00
2013-8-4,81,72,66,72,67,60,97,83,66,30.03,29.96,11,0,11,0.00
2013-8-5,84,71,60,70,63,58,98,78,51,30.08,29.95,9,0,9,0.00
2013-8-6,84,73,64,73,66,59,93,82,64,30.01,29.91,7,0,7,0.00
2013-8-7,79,71,68,74,69,67,98,93,78,30.03,29.95,7,0,7,0.39
2013-8-8,83,72,68,75,70,67,99,93,68,30.04,29.96,7,0,7,0.06
2013-8-9,85,74,68,77,71,67,100,91,73,30.08,29.97,7,0,7,0.11
2013-8-10,80,72,68,76,70,67,100,96,82,30.12,30.03,15,0,15,0.24
2013-8-11,80,72,67,76,70,67,100,95,83,30.16,30.04,6,0,6,0.05
2013-8-12,82,73,67,76,70,67,100,92,75,30.10,29.96,10,0,10,0.01
2013-8-13,79,71,68,73,68,66,99,92,73,29.96,29.83,13,0,13,0.44
2013-8-14,76,68,62,68,64,59,99,86,66,30.02,29.88,9,0,9,0.00
2013-8-15,78,66,60,67,62,58,98,86,63,30.09,29.97,10,0,10,0.24
2013-8-16,75,64,57,66,60,56,99,86,67,30.11,30.02,9,0,9,0.01
2013-8-17,70,64,60,64,60,56,98,90,79,30.14,30.08,7,0,7,0.07
2013-8-18,73,65,62,70,64,61,100,96,83,30.20,30.09,7,0,7,0.38
2013-8-19,73,67,63,70,66,63,100,97,90,30.18,30.06,5,0,5,0.53
2013-8-20,80,70,64,72,68,64,100,94,73,30.16,30.08,9,0,9,0.44
2013-8-21,72,68,66,70,67,66,100,98,92,30.22,30.12,4,0,4,0.15
2013-8-22,84,72,65,76,69,64,100,91,65,30.19,30.01,9,0,9,0.00
2013-8-23,85,71,65,74,67,64,100,89,62,30.08,29.94,11,0,11,0.06
2013-8-24,84,70,62,73,65,61,99,85,57,30.24,30.05,7,0,7,0.01
2013-8-25,80,68,58,68,62,56,95,81,58,30.36,30.22,7,0,7,0.00
2013-8-26,81,68,59,70,63,58,98,83,58,30.31,30.14,9,0,9,0.00
2013-8-27,81,69,59,72,65,58,99,87,66,30.17,30.03,6,0,6,0.00
2013-8-28,85,72,63,75,68,63,99,87,65,30.07,29.95,4,0,11,0.00
2013-8-29,83,74,69,76,70,67,94,88,73,30.00,29.90,9,0,9,0.00
2013-8-30,86,74,66,75,69,65,99,87,61,30.02,29.89,9,0,9,0.00
2013-8-31,86,74,68,76,70,67,100,90,67,29.97,29.83,10,0,10,0.04
2013-9-1,83,72,67,75,69,66,100,91,70,29.91,29.79,13,0,13,0.04
2013-9-2,82,72,65,74,68,64,99,88,69,29.94,29.82,13,0,13,0.00
2013-9-3,83,71,62,74,67,61,100,88,63,29.98,29.82,10,0,10,0.75
2013-9-4,83,70,62,72,65,61,99,86,60,30.10,29.97,8,0,8,0.00
2013-9-5,83,70,61,73,66,61,99,87,64,30.16,30.05,6,0,6,0.01
2013-9-6,83,69,58,70,63,57,99,83,56,30.19,30.04,5,0,5,0.00
2013-9-7,82,69,60,71,64,59,99,86,58,30.13,30.00,9,0,9,0.01
2013-9-8,82,70,61,71,65,60,99,86,58,30.03,29.93,10,0,10,0.00
2013-9-9,84,71,62,74,66,61,97,86,65,30.19,29.99,7,0,7,0.00
2013-9-10,86,77,65,72,69,58,99,76,56,30.28,30.05,5,0,5,0.00
2013-9-11,84,78,65,75,70,65,100,77,61,30.30,30.02,7,0,7,0.00
2013-9-12,75,65,0,74,63,0,100,86,78,30.14,29.90,7,0,7,1.04
2013-9-13,76,68,61,68,63,57,100,85,57,29.97,29.80,12,0,12,0.00
2013-9-14,76,64,49,63,58,43,98,80,56,30.10,29.86,5,0,5,0.01
2013-9-15,79,64,54,65,59,53,98,84,54,30.20,30.08,9,0,9,0.01
2013-9-16,81,66,57,69,61,56,99,85,54,30.19,30.07,8,0,8,0.00
2013-9-17,71,65,61,64,61,58,96,87,76,30.21,30.10,8,0,8,0.00
2013-9-18,67,62,59,61,58,55,95,87,76,30.25,30.16,6,0,6,0.00
2013-9-19,81,66,58,68,62,57,99,87,61,30.21,30.06,11,0,11,0.01
2013-9-20,81,68,61,69,64,60,99,87,60,30.09,29.90,9,0,9,0.00
2013-9-21,65,63,59,65,62,58,99,97,92,29.91,29.72,14,0,14,1.37
2013-9-22,74,60,52,62,56,52,100,86,49,29.92,29.78,8,0,8,0.01
2013-9-23,77,61,52,64,57,51,99,88,58,30.06,29.90,6,0,6,0.01
2013-9-24,75,63,54,66,60,53,100,91,69,30.08,29.90,5,0,5,0.00
2013-9-25,62,61,60,62,60,60,99,98,95,29.90,29.83,9,0,9,0.88
2013-9-26,75,63,58,67,61,56,100,92,68,30.04,29.87,7,0,7,0.06
2013-9-27,74,61,54,66,58,53,99,90,61,30.19,30.03,2,0,6,0.01
2013-9-28,73,61,54,63,58,53,100,88,65,30.23,30.11,6,0,6,0.01
2013-9-29,68,60,55,60,56,54,97,89,71,30.15,30.03,6,0,6,0.00
2013-9-30,73,61,55,63,58,54,99,88,65,30.11,29.99,7,0,7,0.00
2013-10-1,76,62,56,64,59,55,99,89,63,30.18,30.05,4,0,6,0.00
2013-10-2,79,64,57,68,61,56,100,90,61,30.21,30.06,5,0,5,0.01
2013-10-3,80,66,60,68,62,59,99,88,58,30.16,30.04,6,0,6,0.00
2013-10-4,80,66,58,68,62,58,99,88,57,30.20,30.07,6,0,6,0.01
2013-10-5,81,67,58,70,63,57,99,88,66,30.17,30.01,5,0,5,0.01
2013-10-6,78,66,59,67,62,58,99,87,61,30.05,29.81,15,0,15,0.13
2013-10-7,67,58,51,62,54,48,98,88,63,30.06,29.78,18,1,18,0.34
2013-10-8,75,58,46,62,53,45,98,85,57,30.16,30.03,6,0,6,0.01
2013-10-9,76,60,50,64,55,49,97,84,57,30.21,30.07,12,0,12,0.00
2013-10-10,72,60,51,61,54,50,99,82,56,30.17,30.03,17,1,17,0.01
2013-10-11,76,60,48,63,54,47,98,83,50,30.11,29.97,11,0,11,0.00
2013-10-12,76,61,51,64,56,50,99,85,58,30.12,29.98,11,0,11,0.01
2013-10-13,72,62,57,64,58,55,96,89,72,30.22,30.09,10,0,10,0.00
2013-10-14,73,62,55,63,58,54,99,88,65,30.24,30.10,9,0,9,0.01
2013-10-15,73,62,54,62,58,52,97,87,67,30.15,30.00,5,0,5,0.01
2013-10-16,66,59,56,60,57,54,97,91,80,30.07,29.95,6,0,6,0.01
2013-10-17,66,60,54,63,58,52,99,96,87,29.98,29.84,15,1,15,0.34
2013-10-18,68,55,49,57,52,48,98,88,64,30.06,29.92,9,0,9,0.01
2013-10-19,62,53,48,55,50,45,99,88,63,30.00,29.90,13,0,13,0.00
2013-10-20,66,49,38,49,42,36,97,79,47,30.13,30.00,7,0,7,0.00
2013-10-21,68,53,42,53,46,40,97,78,42,30.19,30.01,10,0,10,0.01
2013-10-22,67,56,50,54,50,47,97,83,59,30.03,29.83,8,0,8,0.00
2013-10-23,52,45,34,48,38,30,87,78,62,30.15,29.80,21,2,21,0.00
2013-10-24,54,43,34,42,36,30,85,77,56,30.24,30.12,11,0,11,0.00
2013-10-25,52,39,28,35,28,24,85,67,38,30.44,30.22,16,1,16,0.00
2013-10-26,59,43,27,42,31,25,93,67,33,30.41,30.13,13,0,13,0.00
2013-10-27,58,53,48,51,46,41,86,79,71,30.16,30.09,9,0,9,0.00
2013-10-28,64,54,50,57,51,49,98,88,63,30.29,30.13,19,0,19,0.05
2013-10-29,68,56,49,54,51,48,98,84,57,30.38,30.24,7,0,7,0.00
2013-10-30,76,61,52,60,54,50,93,79,53,30.31,30.14,7,0,7,0.00
2013-10-31,66,61,55,60,56,52,94,83,69,30.16,29.74,33,2,33,0.08
2013-11-1,74,63,53,60,54,43,96,74,38,29.81,29.63,30,2,30,0.31
2013-11-2,59,50,42,50,42,38,87,74,54,30.09,29.76,23,1,23,0.01
2013-11-3,61,47,39,40,38,34,89,72,38,30.33,30.07,11,1,11,0.00
2013-11-4,60,47,38,40,36,34,87,67,46,30.49,30.33,2,1,12,0.00
2013-11-5,66,51,40,44,38,33,79,62,39,30.52,30.35,1,0,7,0.00
2013-11-6,67,57,49,54,50,35,89,78,56,30.37,30.10,9,1,15,0.00
2013-11-7,56,49,36,54,44,31,97,84,59,30.27,30.00,19,1,19,0.26
2013-11-8,57,42,34,31,26,18,81,54,25,30.39,30.27,15,1,15,0.00
2013-11-9,53,44,33,34,27,22,71,52,37,30.42,30.27,11,0,11,0.00
2013-11-10,67,53,44,42,33,26,63,48,30,30.32,30.21,7,1,14,0.00
2013-11-11,66,50,36,36,31,27,74,49,29,30.37,30.17,7,0,7,0.00
2013-11-12,51,39,23,39,28,16,92,66,40,30.55,30.12,16,1,16,0.00
2013-11-13,48,32,20,25,17,13,80,57,28,30.67,30.51,6,1,11,0.01
2013-11-14,57,43,26,27,21,18,74,44,25,30.57,30.34,6,0,6,0.00
2013-11-15,45,40,34,44,37,20,98,91,48,30.37,30.23,10,0,10,0.23
2013-11-16,59,52,45,56,50,44,99,95,85,30.27,30.14,9,0,9,0.01
2013-11-17,63,58,55,62,56,53,99,94,89,30.17,29.86,25,2,25,0.57
2013-11-18,65,54,42,62,44,32,96,70,45,30.11,29.84,29,2,29,0.09
2013-11-19,57,45,36,32,28,24,75,55,31,30.23,30.10,9,1,9,0.00
2013-11-20,56,45,37,32,28,25,67,54,37,30.40,30.18,14,1,14,0.00
2013-11-21,56,51,42,52,45,30,95,81,64,30.44,30.33,10,0,10,0.00
2013-11-22,61,56,53,58,54,52,98,95,88,30.34,30.16,19,0,19,0.11
2013-11-23,55,44,30,53,39,21,97,85,66,30.35,30.13,17,2,17,0.01
2013-11-24,43,30,20,23,14,7,78,55,24,30.55,30.35,14,1,14,0.00
2013-11-25,40,33,24,33,18,11,91,56,34,30.56,30.26,7,0,7,0.03
2013-11-26,47,42,35,46,41,33,99,97,91,30.26,29.71,16,1,16,3.03
2013-11-27,39,27,19,38,24,15,96,90,79,30.32,29.74,18,2,18,0.03
2013-11-28,47,31,18,35,23,15,92,75,54,30.53,30.32,7,0,15,0.11
2013-11-29,55,38,26,36,29,23,93,71,47,30.63,30.47,5,0,5,0.00
2013-11-30,54,41,32,32,27,25,76,60,40,30.60,30.37,6,0,6,0.00
2013-12-1,56,44,34,38,32,26,77,65,47,30.37,30.01,10,0,10,0.00
2013-12-2,47,43,40,43,39,34,91,84,70,30.02,29.84,5,0,5,0.01
2013-12-3,52,48,44,50,46,42,98,96,90,29.94,29.86,5,0,5,0.08
2013-12-4,64,56,50,57,52,49,100,89,70,30.04,29.91,18,1,18,0.01
2013-12-5,66,61,56,62,59,55,99,93,81,30.07,29.94,25,1,25,0.34
2013-12-6,68,63,50,63,60,49,97,90,80,30.05,29.88,38,4,38,1.63
2013-12-7,50,40,36,49,40,35,100,97,96,30.38,30.03,6,0,6,0.01
2013-12-8,47,43,39,46,42,39,99,99,98,30.35,30.14,12,1,12,0.91
2013-12-9,54,49,45,53,48,44,100,98,95,30.16,30.00,10,1,13,0.50
2013-12-10,46,38,28,46,35,19,99,89,64,30.42,29.92,20,2,20,0.77
2013-12-11,51,36,23,33,24,10,95,64,23,30.55,30.37,13,1,13,0.00
2013-12-12,41,32,25,23,16,6,81,56,25,30.50,30.39,18,2,18,0.00
2013-12-13,46,35,23,28,20,13,78,55,39,30.46,30.21,5,0,5,0.00
2013-12-14,50,43,38,48,39,24,99,85,53,30.23,29.80,19,1,19,0.79
2013-12-15,48,32,26,46,30,24,100,92,85,30.26,29.81,12,3,23,0.03
2013-12-16,53,36,23,38,28,22,97,77,43,30.35,30.16,16,1,16,0.01
2013-12-17,58,44,34,39,32,24,81,64,42,30.23,30.02,25,2,25,0.00
2013-12-18,50,37,28,24,15,4,75,44,18,30.37,30.18,18,2,18,0.00
2013-12-19,59,44,30,31,22,11,58,43,30,30.42,30.20,6,0,6,0.00
2013-12-20,56,48,39,48,34,26,82,59,47,30.27,30.14,9,0,9,0.00
2013-12-21,67,60,52,62,56,46,95,87,79,30.14,29.85,34,3,34,0.15
2013-12-22,67,57,51,62,55,50,99,94,75,30.10,29.82,28,2,28,2.50
2013-12-23,51,43,30,51,41,28,99,93,85,30.31,30.03,10,2,17,0.18
2013-12-24,30,26,21,28,22,15,93,82,72,30.51,30.30,13,2,18,0.00
2013-12-25,44,30,19,27,21,16,91,70,46,30.58,30.38,4,0,6,0.00
2013-12-26,49,35,26,32,24,20,86,67,39,30.45,30.32,16,1,16,0.00
2013-12-27,54,38,27,34,27,23,92,67,42,30.54,30.37,7,0,7,0.00
2013-12-28,41,35,30,39,31,25,96,84,71,30.47,30.06,14,0,20,0.62
2013-12-29,49,42,38,45,40,32,98,91,75,30.08,29.88,15,2,15,0.70
2013-12-30,43,39,33,38,36,32,94,89,82,30.23,30.04,12,1,12,0.00
2013-12-31,40,34,29,32,22,15,94,63,41,30.45,30.21,21,1,21,0.00
2014-1-1,46,36,28,29,25,21,81,66,44,30.44,30.17,6,0,6,0.00
2014-1-2,42,33,16,41,30,13,98,88,70,30.18,29.76,23,2,23,0.44